Location: Staunton
(38.1490°N, 79.0720°W)
Time: 01:30:26
(UTC-05:00)

ISS - Pass Details

Date: 15 January 2018
Orbit: 402 x 407 km, 51.6° (Epoch: 21 January)

Event Time Altitude Azimuth Distance (km) Brightness Sun altitude
Exits shadow 05:37:15 45° 52° (NE) 563 -2.9 -22.1°
Drops below altitude 10° 05:40:09 10° 111° (ESE) 1,458 0.1 -21.5°
Sets 05:42:17 0° 117° (ESE) 2,315 1.4 -21.1°
